Regional Weather Roundup
Issued by NWS

Home | Current Version | Previous Version | Graphics & Text | Print | Product List | Glossary On
Versions: 1 2 3 4 5 6 7 8 9 10 11 12 13 14 15 16 17 18 19 20 21 22 23 24 25 26 27 28 29 30 31 32 33 34 35 36 37 38 39 40 41 42 43 44 45 46 47 48 49 50
000
ASUS43 KDMX 030407
RWRIA

WEATHER ROUNDUP FOR IOWA
NATIONAL WEATHER SERVICE DES MOINES IA
1100 PM CDT TUE JUN 02 2015

NOTE: "FAIR" INDICATES FEW OR NO CLOUDS BELOW 12,000 FEET WITH NO
SIGNIFICANT WEATHER AND/OR OBSTRUCTIONS TO VISIBILITY.

* - THESE STATIONS ARE NOT NWS STATIONS...THUS NOT UNDER NWS
QUALITY CONTROL.  THEY ALSO DO NOT REPORT WEATHER SUCH
AS PRECIPITATION OR FOG.

IAZ001>003-012>014-020>022-031>034-043>046-030500-
   NORTHWEST IOWA

CITY           SKY/WX    TMP DP  RH WIND       PRES   REMARKS
CARROLL *      MOCLDY    64  55  72 S10       29.94S
CHEROKEE *     CLEAR     66  57  72 S8G18     29.90F
DENISON *      PTCLDY    64  59  82 SE13G20   29.90F
LE MARS *      CLEAR     68  59  73 S14       29.88S
ORANGE CITY *  CLEAR     66  57  72 S13       29.88S
SHELDON *      CLEAR     68  57  68 S17       29.87F
SIOUX CITY     CLEAR     67  58  72 SE13      29.88S
SPENCER        PTCLDY    66  57  72 SE14      29.91F
STORM LAKE *   CLEAR     64  55  72 S20       29.92F
$$

IAZ055>058-069>071-079>083-090>094-030500-
   SOUTHWEST IOWA

CITY           SKY/WX    TMP DP  RH WIND       PRES   REMARKS
ATLANTIC *     CLEAR     64  57  77 SE7G13    29.94F
AUDUBON *      CLEAR     63  57  82 S5        29.96S
CLARINDA *     CLEAR     63  59  88 SE7       29.96S
COUNCIL BLFS * CLEAR     63  63 100 SE9       29.92F
CRESTON *      CLEAR     63  59  88 S8        29.97S
HARLAN  *      CLEAR     64  63  94 S9        29.97S
LAMONI         CLOUDY    66  57  72 SE9       29.97F
RED OAK *      CLEAR     63  59  88 SE7       29.94S
SHENANDOAH *   CLEAR     64  59  82 SE8       29.94R
$$

IAZ047>049-059>061-072>074-084-030500-
   CENTRAL IOWA

CITY           SKY/WX    TMP DP  RH WIND       PRES   REMARKS
AMES           MOCLDY    62  55  77 SE8       29.97S
ANKENY *       CLEAR     63  55  77 SE8G14    29.97S
CHARITON *     CLEAR     61  57  88 SE8       29.99S
DES MOINES     CLOUDY    65  55  70 SE12      29.97S
GRINNELL*      CLOUDY    61  55  82 SE8       30.01S
KNOXVILLE *    CLEAR     61  55  82 SE8       29.98S
MARSHALLTOWN   MOCLDY    62  55  77 S8        29.99S
PELLA *        CLOUDY    61  59  94 SE7       30.01S
PERRY *          N/A     63  55  75 SE8       29.96S
$$

IAZ004>006-015-016-023>025-035-036-030500-
   NORTH CENTRAL IOWA

CITY           SKY/WX    TMP DP  RH WIND       PRES   REMARKS
ALGONA *       CLEAR     64  55  72 S13       29.95S
CLARION *      CLEAR     64  54  68 S15       29.96F
ESTHERVILLE    PTCLDY    64  55  72 S16       29.93R
FORT DODGE *   PTCLDY    64  54  68 SE8       29.96S
MASON CITY     PTCLDY    63  54  72 S13       29.98S
FOREST CITY *    N/A     61  52  72 SE9       29.96F
IOWA FALLS *     N/A     63  54  72 SE9       29.99S
$$

IAZ007>011-017>019-026>030-037>042-050>054-066-030500-
   NORTHEAST IOWA

CITY           SKY/WX    TMP DP  RH WIND       PRES   REMARKS
CEDAR RAPIDS   MOCLDY    60  54  80 SE3       30.01S
CHARLES CITY * CLEAR     63  55  77 S14       29.99S
CLINTON *      PTCLDY    61  48  63 SE8       30.06S
DECORAH *      PTCLDY    61  50  67 SE6       29.99S
DUBUQUE        PTCLDY    60  49  66 SE8       30.03S
MONTICELLO *   CLEAR     59  54  82 SE5       30.02S
OELWEIN *      CLEAR     61  54  77 S9        30.01S
WATERLOO       MOCLDY    62  54  74 S8        29.99S
$$

IAZ064-065-067-068-078-030500-
   EAST CENTRAL IOWA

CITY           SKY/WX    TMP DP  RH WIND       PRES   REMARKS
DAVENPORT      PTCLDY    62  51  67 SE8       30.04S
IOWA CITY      MOCLDY    62  55  77 CALM      30.02F
MT. PLEASANT * CLEAR     59  54  82 S6        30.02F
MUSCATINE *    CLEAR     61  55  82 CALM      30.03S
QUAD CITIES    PTCLDY    61  51  70 S7        30.03S
$$

IAZ062-063-075>077-085>089-095>099-030500-
   SOUTHEAST IOWA

CITY           SKY/WX    TMP DP  RH WIND       PRES   REMARKS
BURLINGTON     CLEAR     63  55  75 SE5       30.02F
FAIRFIELD *    CLEAR     59  54  82 SE6       30.02S
FORT MADISON *   N/A     61  55  82 CALM      30.04S
KEOKUK *       CLEAR     59  57  94 SE3       30.02F
OSKALOOSA *      N/A     59  55  88 SE5       30.02R
CENTERVILLE *  CLEAR     59  59 100 SE7       30.02S
OTTUMWA        PTCLDY    59  56  89 S6        30.01R
WASHINGTON *   CLEAR     59  54  82 S7        30.03F
$$

ABBREVIATIONS USED IN REMARKS
   TC - TEMPERATURES IN CELSIUS
  WCI - WIND CHILL INDEX
   HX - HEAT INDEX
  VSB - VISIBILITY
$$




USA.gov is the U.S. government's official web portal to all federal, state and local government web resources and services.